[[{"header":{"parameterUnit":"m.s-1","parameterCategory":1,"la1":30.2991,"la2":30.254,"lo1":-89.0895,"lo2":-89.0444,"dy":0.0017,"dx":0.0017,"nx":28,"ny":28,"refTime":"2024-06-24T09:00:00:Z","depth":0,"parameterNumber":2,"parameterNumberName":"U-component_of_WINDS"},"data":[0,0,0,0,0,0,0,0,0,0,0,0,0,0,0,0,0,0,0,0,0,0,0,0,0,0,0,0,0,0,0,0,0,0,0,0,0,0,0,0,0,0,0,0,0,0,0,0,0,0,0,0,0,0,0,0,0,0,2.0786,2.0787,0,2.0932,2.0934,2.0935,2.0922,2.092,2.0918,2.0916,2.1072,2.1079,2.1085,0,0,0,0,0,0,0,0,0,0,0,0,0,2.0503,2.0508,2.0786,2.0788,2.0789,2.0932,2.0934,2.0936,2.0923,2.092,2.0917,2.0915,2.107,2.1078,2.1085,0,0,0,0,0,0,0,0,0,0,0,0,0,2.0635,2.051,2.0785,2.08,2.0803,2.0931,2.0934,2.0936,2.0923,2.092,2.0917,2.0913,2.1068,2.1077,2.1086,2.1212,0,0,2.1115,2.1119,0,0,0,0,0,0,0,0,2.0628,2.0646,2.0796,2.0799,2.0802,2.0905,2.0891,2.1029,2.0924,2.0878,2.0916,2.0912,2.102,2.1033,2.1068,2.1219,2.1226,2.1116,2.1122,2.1126,2.1128,0,0,0,0,0,0,0,2.0619,2.0639,2.0844,2.0798,2.0802,2.0802,2.0817,2.0917,2.0966,2.0882,2.0881,2.0898,2.1021,2.1059,2.1072,2.1228,2.1116,2.1124,2.113,2.1133,2.1492,2.1496,0,0,0,0,0,0,2.0605,2.0632,2.0839,2.0848,2.0705,2.0809,2.0826,2.0876,2.0965,2.0975,2.0901,2.0897,2.1045,2.1061,2.1077,2.1231,2.1126,2.1134,2.114,2.1488,2.1493,2.1497,0,0,0,0,0,0,2.0599,2.0624,2.0833,2.074,2.0767,2.0818,2.0874,2.0881,2.0918,2.098,2.0989,2.093,2.1043,2.1064,2.1178,2.1236,2.1139,2.1147,2.1483,2.1489,2.1495,2.1539,0,0,0,0,0,0,2.0591,2.0622,2.0668,2.0741,2.0771,2.093,2.0877,2.0886,2.0934,2.093,2.101,2.102,2.1042,2.1164,2.1188,2.1247,2.1155,2.1478,2.1486,2.1493,2.1532,2.1545,2.1556,0,0,0,0,0,2.0581,2.0676,2.067,2.0695,2.083,2.0933,2.0951,2.0972,2.0938,2.0987,2.1026,2.1017,2.1226,2.1176,2.1202,2.1266,2.1475,2.1484,2.1492,2.1527,2.1543,2.1556,0,0,0,0,0,0,2.061,2.0686,2.068,2.0801,2.0861,2.0931,2.0992,2.0988,2.106,2.1054,2.108,2.1098,2.1214,2.1251,2.1194,2.1393,2.1346,2.1361,2.1364,2.1379,2.1391,2.138,2.1162,0,0,0,0,0,2.063,2.0705,2.0768,2.0869,2.0899,2.094,2.0986,2.0997,2.1061,2.1087,2.1135,2.1199,2.1279,2.1331,2.1408,2.1538,2.1556,2.1595,2.1607,2.1616,2.1628,2.1701,2.1719,2.1526,2.1525,2.1525,0,0,2.0673,2.0724,2.077,2.0876,2.0923,2.1003,2.0962,2.1047,2.1107,2.1101,2.1211,2.1249,2.1322,2.1445,2.1501,2.148,2.1686,2.1627,2.1635,2.1642,2.1712,2.173,2.1746,2.1531,2.153,2.1529,0,0,2.0792,2.0837,2.0926,2.0975,2.1046,2.1073,2.1095,2.1166,2.119,2.1301,2.1298,2.1371,2.1508,2.1561,2.1606,2.1746,2.1741,2.1771,2.1834,2.1904,2.192,2.1933,2.1984,2.2002,2.1783,2.1783,2.1783,0,2.0837,2.0954,2.0973,2.1059,2.1107,2.1103,2.1195,2.1242,2.1336,2.137,2.1344,2.1517,2.1566,2.1701,2.1735,2.1772,2.1799,2.1762,2.1915,2.1929,2.1942,2.1991,2.201,2.1786,2.1786,2.1786,2.1785,0,2.1006,2.1088,2.1152,2.1241,2.1296,2.1384,2.1419,2.1473,2.1481,2.1511,2.1625,2.1684,2.1774,2.1807,2.1816,2.1944,2.1929,2.1909,2.1863,2.1964,2.201,2.2029,2.1791,2.179,2.1789,2.1788,0,0,2.1146,2.1245,2.1268,2.1309,2.1389,2.1453,2.1543,2.1629,2.1675,2.1741,2.1818,2.1934,2.1917,2.1968,2.1983,2.2044,2.2153,2.2017,2.2019,2.2041,2.23,2.2314,2.2335,2.215,2.2153,2.2156,2.2293,0,2.1273,2.1429,2.145,2.1589,2.1666,2.1664,2.1743,2.1802,2.1833,2.1905,2.1941,2.2023,2.1993,2.2024,2.2085,2.2126,2.2205,2.2117,2.2224,2.2227,2.2204,2.2359,2.2374,2.25,2.2312,2.2315,2.2317,0,2.1442,2.151,2.1657,2.1726,2.176,2.1829,2.191,2.1978,2.2045,2.2064,2.2121,2.2129,2.2224,2.2174,2.2307,2.2247,2.2292,2.2319,2.2325,2.2335,2.2278,2.2374,2.2541,2.256,2.2346,2.2343,2.2341,0,2.153,2.1659,2.1763,2.1799,2.1883,2.1932,2.197,2.2034,2.2084,2.2156,2.2189,2.2272,2.2317,2.2382,2.2412,2.2373,2.2544,2.2496,2.2564,2.2563,2.2599,2.2597,2.2776,2.2629,2.2629,2.2628,2.2628,0,2.1669,2.1759,2.1804,2.1868,2.197,2.1994,2.2095,2.2131,2.2188,2.2261,2.2266,2.2335,2.2371,2.2446,2.2471,2.2578,2.2599,2.2618,2.2624,2.2618,2.2615,2.2647,2.2639,2.2633,2.2632,2.2631,2.263,0,2.1784,2.1818,2.1931,2.2002,2.2022,2.2093,2.2155,2.2219,2.225,2.2342,2.2366,2.2416,2.2505,2.2542,2.2651,2.2668,2.2791,2.279,2.2767,2.2769,2.2834,2.2828,2.3041,2.307,2.2903,2.2905,2.2906,0,2.187,2.1939,2.2017,2.2065,2.2104,2.2182,2.2233,2.2261,2.2314,2.2397,2.2451,2.254,2.2611,2.2754,2.2802,2.2886,2.2887,2.2956,2.29,2.2892,2.2889,2.2884,2.2891,2.2966,2.2968,2.2969,2.2971,0,2.202,2.2034,2.2106,2.2185,2.2246,2.231,2.2373,2.2413,2.245,2.2511,2.26,2.2656,2.2768,2.2856,2.2943,2.2985,2.2985,2.2988,2.3008,2.3002,2.2986,2.2996,2.2795,2.2983,2.2982,2.2981,2.298,2.298,2.2124,2.2185,2.2249,2.2331,2.238,2.2439,2.2502,2.2541,2.2616,2.2707,2.272,2.2817,2.2885,2.3001,2.3046,2.3124,2.3106,2.3135,2.3143,2.3149,2.3154,2.2974,2.314,2.3139,2.3139,2.3139,2.3139,0,2.2274,2.2316,2.239,2.2477,2.2541,2.2534,2.2603,2.2658,2.2742,2.2805,2.2875,2.2979,2.3065,2.312,2.3207,2.3258,2.3261,2.328,2.3277,2.3286,2.3164,2.3138,2.3277,2.3277,2.3277,2.3277,2.3277,2.3277,2.236,2.2463,2.2485,2.2614,2.2656,2.2748,2.2789,2.2844,2.2894,2.3009,2.3079,2.3114,2.3174,2.3266,2.3345,2.3359,2.3391,2.3412,2.3425,2.3309,2.3295,2.3281,2.3257,2.3418,2.3419,2.3541,2.3542,2.3543]},{"header":{"parameterUnit":"m.s-1","parameterCategory":1,"la1":30.2991,"la2":30.254,"lo1":-89.0895,"lo2":-89.0444,"dy":0.0017,"dx":0.0017,"nx":28,"ny":28,"refTime":"2024-06-24T09:00:00:Z","depth":0,"parameterNumber":3,"parameterNumberName":"V-component_of_WINDS"},"data":[0,0,0,0,0,0,0,0,0,0,0,0,0,0,0,0,0,0,0,0,0,0,0,0,0,0,0,0,0,0,0,0,0,0,0,0,0,0,0,0,0,0,0,0,0,0,0,0,0,0,0,0,0,0,0,0,0,0,3.1256,3.1257,0,3.1363,3.1365,3.1366,3.1353,3.1352,3.135,3.1348,3.1453,3.1457,3.1462,0,0,0,0,0,0,0,0,0,0,0,0,0,3.1032,3.1036,3.1256,3.1257,3.1259,3.1363,3.1365,3.1366,3.1354,3.1352,3.1349,3.1347,3.1452,3.1457,3.1462,0,0,0,0,0,0,0,0,0,0,0,0,0,3.1133,3.1037,3.1256,3.1265,3.1267,3.1363,3.1365,3.1367,3.1354,3.1351,3.1349,3.1347,3.145,3.1456,3.1463,3.1555,0,0,3.1483,3.1486,0,0,0,0,0,0,0,0,3.1127,3.1141,3.1262,3.1265,3.1267,3.1342,3.1324,3.1429,3.1355,3.1321,3.1348,3.1345,3.1418,3.1427,3.1453,3.156,3.1564,3.1483,3.1487,3.149,3.1492,0,0,0,0,0,0,0,3.112,3.1136,3.1298,3.1264,3.1267,3.1261,3.1273,3.1344,3.1382,3.1324,3.1323,3.1336,3.1419,3.1446,3.1455,3.1566,3.1483,3.1489,3.1493,3.1496,3.1747,3.1749,0,0,0,0,0,0,3.1112,3.1131,3.1295,3.1301,3.1189,3.1267,3.128,3.1321,3.1382,3.1388,3.1338,3.1335,3.1436,3.1447,3.1459,3.1566,3.149,3.1496,3.15,3.1744,3.1747,3.175,0,0,0,0,0,0,3.1107,3.1127,3.129,3.1216,3.1236,3.1274,3.1319,3.1324,3.1352,3.1393,3.1399,3.136,3.1435,3.1449,3.153,3.1569,3.1499,3.1505,3.1741,3.1745,3.1749,3.1784,0,0,0,0,0,0,3.1101,3.1125,3.1162,3.1217,3.1241,3.1363,3.1322,3.1328,3.1364,3.1361,3.1415,3.1421,3.1434,3.152,3.1536,3.1577,3.151,3.1737,3.1743,3.1748,3.1779,3.1788,3.1797,0,0,0,0,0,3.1093,3.1168,3.1164,3.1184,3.1288,3.1365,3.1378,3.1393,3.1367,3.1403,3.1429,3.1419,3.1563,3.1528,3.1547,3.159,3.1735,3.1741,3.1747,3.1775,3.1787,3.1796,0,0,0,0,0,0,3.1116,3.1175,3.1172,3.1268,3.1312,3.1363,3.1409,3.1405,3.1456,3.1451,3.1466,3.1478,3.1558,3.1583,3.1543,3.1679,3.1645,3.1655,3.166,3.1671,3.168,3.1671,3.1516,0,0,0,0,0,3.1133,3.1192,3.124,3.132,3.1342,3.1372,3.1406,3.1413,3.1458,3.1476,3.1508,3.155,3.1604,3.1639,3.1692,3.1783,3.1792,3.1822,3.183,3.1837,3.1845,3.1889,3.1902,3.1771,3.1771,3.177,0,0,3.1167,3.1207,3.1244,3.1325,3.136,3.1418,3.1387,3.1451,3.1493,3.1485,3.1562,3.1587,3.1635,3.1719,3.1758,3.1742,3.1883,3.1845,3.185,3.1854,3.1897,3.1909,3.192,3.1775,3.1774,3.1773,0,0,3.1259,3.1297,3.1365,3.14,3.1453,3.1472,3.1488,3.1539,3.1555,3.1633,3.1627,3.1676,3.1771,3.1803,3.1832,3.1932,3.1923,3.1949,3.1993,3.2037,3.2047,3.2056,3.2087,3.2099,3.1957,3.1957,3.1957,0,3.1294,3.1384,3.14,3.1463,3.1497,3.1494,3.156,3.1593,3.166,3.1682,3.1664,3.1779,3.1811,3.1901,3.1925,3.1951,3.1966,3.1942,3.2045,3.2054,3.2062,3.2092,3.2104,3.1959,3.1959,3.1959,3.1959,0,3.1422,3.1483,3.1532,3.1596,3.1636,3.1701,3.1724,3.1762,3.1765,3.1784,3.1861,3.1899,3.1957,3.198,3.1984,3.2069,3.2057,3.2042,3.2007,3.2077,3.2105,3.2117,3.1963,3.1962,3.1961,3.1961,0,0,3.1531,3.1603,3.162,3.1647,3.1703,3.175,3.1812,3.187,3.19,3.1945,3.1995,3.2074,3.2059,3.2091,3.2099,3.2138,3.2208,3.2117,3.2118,3.2129,3.2298,3.2307,3.232,3.2204,3.2206,3.2208,3.2293,0,3.1625,3.1738,3.1752,3.1851,3.1905,3.1901,3.1954,3.1993,3.2013,3.2059,3.208,3.2133,3.2112,3.2131,3.2169,3.2191,3.2241,3.2186,3.2246,3.2248,3.2231,3.2335,3.2346,3.2424,3.2304,3.2306,3.2308,0,3.175,3.1798,3.1902,3.1947,3.197,3.2019,3.207,3.2116,3.2158,3.2169,3.2204,3.2206,3.2266,3.2231,3.2312,3.2274,3.2299,3.2313,3.2317,3.232,3.228,3.2338,3.245,3.246,3.2326,3.2324,3.2323,0,3.1813,3.1905,3.1977,3.2001,3.2057,3.209,3.2114,3.2154,3.2186,3.2231,3.2251,3.2302,3.2329,3.2366,3.238,3.2354,3.2458,3.2426,3.2466,3.2465,3.2486,3.2484,3.26,3.2508,3.2508,3.2508,3.2508,0,3.1914,3.1977,3.2006,3.205,3.2118,3.2134,3.22,3.2223,3.2257,3.2303,3.2303,3.2346,3.2363,3.2407,3.2419,3.2481,3.2494,3.2502,3.2503,3.25,3.2498,3.2515,3.2508,3.2511,3.251,3.251,3.2509,0,3.1996,3.2019,3.2097,3.2143,3.2156,3.2203,3.2241,3.2282,3.23,3.2358,3.2372,3.24,3.2452,3.247,3.2533,3.254,3.2611,3.261,3.2597,3.2596,3.2634,3.2628,3.2762,3.2778,3.2679,3.268,3.2681,0,3.2057,3.2105,3.2155,3.2187,3.2212,3.2263,3.2295,3.2311,3.2344,3.2394,3.2427,3.2479,3.2521,3.2603,3.2627,3.2674,3.2671,3.2715,3.2678,3.2672,3.2667,3.2662,3.2665,3.272,3.2721,3.2722,3.2723,0,3.2162,3.217,3.2218,3.2269,3.2307,3.2348,3.2387,3.2412,3.2432,3.2469,3.2522,3.2555,3.2618,3.2668,3.2715,3.2737,3.2732,3.2734,3.2745,3.2741,3.273,3.2732,3.2611,3.2731,3.273,3.2729,3.2729,3.2729,3.2233,3.2273,3.2314,3.2365,3.2396,3.2432,3.2471,3.2494,3.2539,3.2593,3.2599,3.2655,3.2691,3.2754,3.2778,3.282,3.2807,3.2824,3.2828,3.2831,3.2832,3.2726,3.2829,3.2829,3.2828,3.2828,3.2828,0,3.2333,3.2359,3.2407,3.2461,3.25,3.2494,3.2536,3.2568,3.2618,3.2654,3.2695,3.2753,3.28,3.2828,3.2874,3.2902,3.29,3.2913,3.2909,3.2913,3.2842,3.2826,3.2913,3.2913,3.2913,3.2913,3.2913,3.2913,3.239,3.2457,3.2469,3.2549,3.2574,3.263,3.2653,3.2684,3.2712,3.2778,3.2818,3.2836,3.2866,3.2914,3.2956,3.2962,3.2977,3.2991,3.2995,3.2928,3.2919,3.291,3.2895,3.2995,3.2995,3.3062,3.3063,3.3063]}]]